Regional Weather Roundup
Issued by NWS

Home | Current Version | Previous Version | Text Only | Print | Product List | Glossary Off
Versions: 1 2 3 4 5 6 7 8 9 10 11 12 13 14 15 16 17 18 19 20 21 22 23 24 25 26 27 28 29 30 31 32 33 34 35 36 37 38 39 40 41 42 43 44 45 46 47 48 49 50

000
ASUS45 KPSR 161310
RWRAZ

ARIZONA REGIONAL HOURLY WEATHER ROUNDUP
NATIONAL WEATHER SERVICE PHOENIX AZ
600 AM MST WED APR 16 2014

NOTE: FAIR INDICATES FEW OR NO CLOUDS BELOW 12,000 FEET WITH NO
SIGNIFICANT WEATHER AND/OR OBSTRUCTIONS TO VISIBILITY.

AZZ001>003-036-161400-
NORTHWEST ARIZONA

CITY           SKY/WX    TMP DP  RH WIND       PRES   REMARKS
BULLHEAD CITY  CLEAR     57  10  15 CALM      29.73S
KINGMAN        CLEAR     56   5  13 CALM      29.83R
$$

AZZ004>008-015-016-018-161400-
NORTH CENTRAL ARIZONA

CITY           SKY/WX    TMP DP  RH WIND       PRES   REMARKS
GRAND CANYON   PTCLDY    20  -1  40 E3        29.98R
WILLIAMS       CLEAR     27   1  33 SE9       30.05R WCI  17
PRESCOTT       PTCLDY    39  11  31 S3        29.92R
FLAGSTAFF      CLEAR     31   4  31 CALM      29.98S
PAYSON         CLEAR     45   7  21 CALM      29.94R
PAGE           PTCLDY    56   6  13 N10       29.86R
$$

AZZ009>014-017-161400-
NORTHEAST ARIZONA

CITY           SKY/WX    TMP DP  RH WIND       PRES   REMARKS
WINSLOW        PTCLDY    36  12  37 SE5       29.90R WCI  32
SAINT JOHNS    MOCLDY    39   9  29 SE5       29.93R
WINDOW ROCK    PTCLDY    29   2  31 N3        29.95R
SHOW LOW       PTCLDY    37   7  28 S5        29.99R WCI  34
$$

AZZ023-161400-
GREATER PHOENIX AREA

CITY           SKY/WX    TMP DP  RH WIND       PRES   REMARKS
PHOENIX        PTCLDY    62  22  21 E5        29.74R
BUCKEYE          N/A     48   7  18 N3        29.76R
GLENDALE       CLEAR     55  27  33 N6        29.76
LUKE AFB       NOT AVBL
DEER VALLEY    CLEAR     55  14  19 CALM      29.75R
SCOTTSDALE     CLEAR     59  23  25 CALM      29.78R
MESA-FALCON    CLEAR     57  16  19 N7        29.77
MESA-GATEWAY   CLEAR     54  16  22 SE5       29.78R
CHANDLER       CLEAR     54  28  37 NE8       29.76
$$

AZZ027-028-161400-
SOUTHWEST MARICOPA COUNTY AND PINAL COUNTY

CITY           SKY/WX    TMP DP  RH WIND       PRES   REMARKS
CASA GRANDE    CLEAR     50  12  22 CALM      29.78R
$$

AZZ503-504-507>509-161400-
SOUTHEAST ARIZONA

CITY           SKY/WX    TMP DP  RH WIND       PRES   REMARKS
TUCSON         CLEAR     56   9  15 SE10      29.85R
DAVIS-MONTHAN  CLEAR     56  11  16 SE8       29.83R
RYAN FIELD       N/A     48  10  21 E3        29.84
NOGALES        CLEAR     45  12  26 NE6       29.89R
SIERRA VISTA   PTCLDY    57   5  12 SW3       29.91S
DOUGLAS        PTCLDY    44   8  23 CALM      29.91R
SAFFORD        CLEAR     43   6  21 NW3       29.84R
$$

AZZ020-021-025-026-031-161400-
SOUTHWEST ARIZONA

CITY           SKY/WX    TMP DP  RH WIND       PRES   REMARKS
YUMA           PTCLDY    61  34  36 SW3       29.71R
$$

CAZ031-033-041-043-047-048-061-161400-
SOUTHERN CALIFORNIA

CITY           SKY/WX    TMP DP  RH WIND       PRES   REMARKS
DOWNTOWN L.A.  CLOUDY    58  51  78 CALM      29.84F
L.A. AIRPORT   CLOUDY    59  51  75 E3        29.85S
SAN DIEGO      CLOUDY    59  51  75 CALM      29.88R
BURBANK        CLOUDY    55  51  86 CALM      29.83F FOG
ONTARIO        MOCLDY    53  51  93 W3        29.84S FOG
RIVERSIDE      CLEAR     52  50  93 CALM      29.85S FOG
PALM SPRINGS   CLEAR     65  37  35 CALM      29.73R
EL CENTRO NAS  CLEAR     60  26  27 W7        29.70R
IMPERIAL       CLEAR     61  31  32 W7        29.69R
BLYTHE         CLEAR     61  17  18 CALM      29.71R
NEEDLES        CLEAR     64  13  13 NW6       29.72R
$$

NVZ020-UTZ003-161400-
SOUTHERN NEVADA-UTAH

CITY           SKY/WX    TMP DP  RH WIND       PRES   REMARKS
LAS VEGAS      PTCLDY    60  18  19 S9        29.74R
SALT LAKE CITY MOCLDY    42  22  44 NW3       29.98R
$$

NMZ009-TXZ055-161400-
NEW MEXICO-WEST TEXAS

CITY           SKY/WX    TMP DP  RH WIND       PRES   REMARKS
ALBUQUERQUE    PTCLDY    40   8  26 SE8       29.90R WCI  34
EL PASO        PTCLDY    50  14  23 SW5       29.88R
$$


........................KEY........................
SKY/WX - SKY CONDITION/WEATHER
TMP    - TEMPERATURE IN FAHRENHEIT
DP     - DEW POINT IN FAHRENHEIT
RH     - RELATIVE HUMIDITY IN PERCENT
WIND   - DIRECTION AND SPEED IN MILES PER HOUR (MPH)
VRB    - VARIABLE WIND DIRECTION
PRES   - MEAN SEA LEVEL PRESSURE IN INCHES OF MERCURY
         F - FALLING PRESSURE   R - RISING PRESSURE
         S - STEADY PRESSURE
VSB    - VISIBILITY IN MILES
HX     - HEAT INDEX IN FAHRENHEIT
WCI    - WIND CHILL INDEX IN FAHRENHEIT
TC     - TEMPERATURE IN CELSIUS WHICH IS ALSO KNOWN AS
         TEMPERATURE IN CENTIGRADE
AFB    - AIR FORCE BASE
         LUKE AFB IS LUKE AIR FORCE BASE
         DAVIS-MONTHAN IS DAVIS-MONTHAN AIR FORCE BASE
NAS    - NAVAL AIR STATION
         EL CENTRO NAS IS EL CENTRO NAVAL AIR STATION
N/A    - NOT AVAILABLE



USA.gov is the U.S. government's official web portal to all federal, state and local government web resources and services.